Temp
-8 -8 -8 -8 -8 -9 -9 -9 -9 -9 -9 -9 -9 -9 -9 -10 -10 -10 -11 -11 -11 -11 -11 -11 -11 -11 -11 -11 -10 -10 -10 -9 -10 -10 -10 -10 -10 -10 -10 -10 -10 -10 -10 -10 -9 -9 -9 -9 -9
-8 -8 -8 -9 -9 -9 -9 -9 -9 -9 -9 -9 -9 -10 -10 -10 -10 -11 -11 -11 -11 -11 -11 -11 -11 -11 -12 -11 -11 -10 -10 -10 -10 -10 -10 -10 -10 -10 -10 -10 -10 -10 -10 -10 -10 -9 -9 -9 -9
-8 -8 -8 -9 -9 -10 -10 -10 -10 -10 -10 -10 -10 -10 -10 -11 -11 -11 -11 -11 -12 -12 -11 -11 -12 -12 -12 -12 -12 -11 -11 -11 -11 -10 -11 -10 -10 -10 -10 -10 -10 -10 -10 -10 -10 -9 -9 -9 -9
-8 -9 -9 -9 -10 -10 -10 -10 -10 -11 -11 -11 -11 -11 -11 -11 -11 -11 -11 -12 -11 -11 -12 -11 -12 -12 -12 -11 -12 -11 -11 -11 -11 -11 -11 -11 -11 -10 -10 -10 -10 -10 -9 -10 -10 -10 -9 -10 -10
-9 -9 -9 -9 -10 -10 -10 -11 -11 -11 -11 -11 -11 -11 -11 -12 -12 -11 -11 -12 -12 -12 -12 -12 -12 -12 -12 -12 -11 -12 -12 -12 -12 -11 -12 -12 -11 -11 -10 -11 -10 -10 -10 -10 -10 -10 -10 -10 -10
-9 -9 -9 -10 -10 -11 -11 -11 -11 -11 -11 -11 -12 -12 -12 -12 -12 -12 -12 -12 -12 -12 -13 -12 -12 -12 -12 -12 -10 -12 -12 -13 -12 -12 -12 -12 -12 -12 -11 -11 -11 -11 -10 -10 -10 -10 -10 -10 -10
-9 -9 -10 -10 -11 -11 -11 -11 -11 -12 -12 -12 -12 -12 -12 -12 -13 -13 -13 -14 -14 -14 -14 -13 -13 -13 -13 -13 -12 -11 -11 -12 -13 -13 -12 -12 -12 -12 -12 -11 -11 -11 -11 -10 -10 -10 -11 -10 -10
-9 -10 -10 -11 -11 -11 -11 -11 -11 -12 -12 -12 -12 -12 -13 -13 -14 -15 -15 -15 -15 -16 -15 -15 -14 -14 -13 -13 -13 -12 -12 -12 -13 -13 -13 -12 -12 -12 -12 -12 -12 -11 -11 -11 -11 -11 -11 -10 -10
-10 -10 -11 -11 -11 -11 -11 -12 -12 -12 -12 -12 -12 -13 -13 -14 -16 -16 -17 -16 -16 -16 -16 -16 -15 -15 -15 -14 -14 -13 -13 -13 -13 -13 -14 -13 -12 -12 -12 -12 -12 -12 -12 -12 -11 -11 -11 -10 -11
-10 -10 -11 -11 -11 -12 -12 -12 -12 -12 -12 -12 -13 -13 -14 -15 -17 -17 -16 -16 -16 -16 -16 -16 -16 -15 -15 -15 -14 -14 -12 -13 -13 -13 -13 -13 -13 -12 -12 -12 -12 -12 -12 -12 -11 -11 -11 -11 -11
-10 -11 -11 -11 -12 -12 -12 -12 -12 -12 -13 -13 -13 -14 -16 -16 -16 -16 -16 -17 -17 -17 -17 -17 -17 -16 -16 -15 -15 -15 -13 -13 -13 -13 -13 -13 -13 -13 -12 -12 -12 -12 -12 -12 -11 -12 -12 -11 -12
-10 -11 -11 -11 -12 -12 -12 -12 -12 -12 -13 -13 -14 -15 -17 -17 -17 -17 -16 -17 -17 -18 -18 -18 -17 -17 -17 -16 -15 -14 -14 -14 -13 -13 -13 -13 -13 -13 -13 -13 -13 -12 -12 -12 -12 -12 -12 -12 -12
-10 -11 -11 -12 -12 -12 -12 -12 -12 -12 -13 -13 -14 -16 -17 -17 -17 -17 -17 -18 -18 -18 -19 -19 -18 -18 -18 -17 -16 -15 -14 -13 -13 -13 -12 -13 -13 -13 -13 -13 -13 -12 -12 -12 -12 -12 -12 -12 -12
-10 -11 -11 -12 -12 -12 -12 -12 -12 -13 -13 -13 -15 -17 -17 -17 -18 -18 -18 -18 -18 -19 -19 -20 -18 -18 -18 -17 -17 -16 -14 -13 -13 -13 -13 -13 -13 -13 -13 -13 -13 -13 -12 -12 -12 -12 -13 -13 -12
-11 -11 -11 -12 -12 -12 -12 -12 -13 -13 -13 -14 -17 -17 -17 -18 -18 -18 -18 -18 -19 -19 -20 -21 -20 -18 -18 -18 -17 -17 -15 -14 -13 -13 -13 -13 -13 -13 -13 -13 -13 -12 -12 -13 -13 -13 -13 -14 -13
-11 -11 -12 -12 -12 -12 -13 -13 -13 -13 -13 -15 -17 -17 -18 -18 -18 -18 -18 -19 -19 -20 -20 -20 -19 -19 -18 -18 -17 -17 -16 -14 -14 -13 -13 -13 -13 -13 -13 -13 -13 -13 -13 -13 -13 -14 -14 -13 -14
-11 -11 -12 -12 -12 -12 -13 -13 -13 -13 -14 -16 -17 -17 -18 -18 -18 -18 -18 -19 -20 -20 -20 -20 -20 -19 -18 -18 -17 -17 -16 -15 -14 -13 -13 -13 -13 -13 -13 -13 -13 -13 -13 -13 -13 -13 -14 -13 -14
-11 -11 -12 -12 -12 -12 -13 -13 -13 -13 -14 -16 -17 -17 -18 -18 -18 -19 -19 -20 -20 -20 -20 -20 -20 -19 -19 -18 -18 -17 -17 -16 -15 -14 -15 -14 -13 -13 -13 -13 -14 -13 -13 -13 -13 -14 -13 -14 -14
-11 -11 -12 -12 -13 -13 -13 -13 -13 -13 -14 -15 -17 -17 -18 -18 -18 -19 -19 -20 -20 -20 -20 -20 -19 -19 -19 -19 -18 -17 -17 -17 -15 -14 -14 -14 -13 -13 -13 -14 -14 -13 -13 -13 -13 -13 -14 -14 -14
-11 -11 -12 -12 -13 -13 -13 -13 -13 -14 -14 -14 -16 -17 -18 -18 -18 -18 -18 -19 -20 -20 -20 -20 -20 -20 -20 -19 -18 -17 -17 -16 -16 -14 -14 -13 -13 -13 -13 -14 -14 -14 -13 -13 -13 -14 -14 -13 -14
-11 -12 -12 -12 -12 -13 -13 -13 -13 -14 -14 -14 -15 -17 -18 -18 -18 -18 -18 -18 -18 -19 -20 -20 -20 -20 -19 -19 -18 -17 -17 -17 -15 -15 -14 -14 -13 -13 -13 -14 -14 -14 -14 -14 -14 -14 -14 -14 -14
-11 -11 -12 -12 -12 -13 -13 -14 -14 -14 -14 -14 -15 -16 -17 -18 -18 -18 -18 -18 -18 -18 -19 -19 -20 -20 -19 -18 -18 -17 -16 -16 -16 -14 -14 -14 -14 -13 -14 -14 -14 -14 -14 -14 -14 -14 -14 -14 -14
-11 -11 -12 -12 -12 -13 -13 -13 -14 -14 -14 -14 -14 -15 -17 -18 -18 -19 -19 -18 -18 -18 -18 -18 -18 -18 -18 -18 -18 -17 -16 -16 -15 -15 -15 -14 -14 -14 -14 -14 -14 -14 -14 -14 -14 -14 -14 -14 -14
-11 -11 -11 -12 -12 -12 -13 -14 -14 -14 -14 -14 -14 -15 -15 -17 -18 -18 -19 -18 -18 -18 -17 -17 -18 -18 -18 -17 -17 -17 -16 -16 -15 -15 -15 -14 -14 -14 -14 -14 -14 -14 -14 -14 -14 -14 -14 -14 -14
-12 -12 -12 -12 -12 -12 -13 -13 -14 -14 -14 -14 -14 -14 -15 -15 -17 -18 -18 -18 -17 -17 -18 -17 -17 -18 -18 -17 -17 -17 -16 -16 -15 -15 -15 -14 -14 -14 -14 -14 -14 -14 -14 -14 -14 -14 -14 -14 -14
-12 -12 -12 -12 -12 -12 -13 -13 -14 -14 -14 -14 -14 -14 -15 -15 -16 -17 -18 -18 -18 -17 -17 -17 -17 -17 -18 -17 -16 -17 -16 -16 -15 -15 -15 -14 -14 -14 -14 -14 -14 -14 -14 -14 -14 -14 -14 -14 -14
-12 -12 -12 -12 -12 -12 -13 -13 -14 -14 -14 -14 -14 -14 -14 -15 -15 -16 -17 -17 -17 -17 -17 -17 -17 -17 -17 -18 -16 -16 -16 -16 -15 -15 -15 -15 -15 -14 -14 -14 -14 -14 -14 -14 -14 -14 -14 -14 -14
-13 -13 -12 -12 -12 -12 -12 -13 -13 -14 -14 -14 -14 -14 -14 -15 -15 -15 -16 -17 -17 -18 -17 -17 -17 -17 -17 -17 -16 -16 -16 -16 -16 -16 -16 -15 -15 -15 -14 -14 -14 -14 -14 -14 -14 -14 -14 -14 -14
-13 -13 -13 -12 -12 -12 -12 -13 -13 -14 -14 -14 -15 -15 -15 -15 -15 -15 -15 -16 -17 -17 -17 -17 -17 -16 -16 -16 -17 -16 -16 -16 -16 -15 -15 -15 -15 -14 -14 -14 -14 -14 -14 -14 -14 -14 -15 -15 -15
-13 -13 -13 -12 -12 -12 -12 -12 -13 -13 -14 -14 -15 -15 -15 -15 -15 -15 -15 -15 -16 -17 -16 -16 -16 -16 -16 -16 -16 -16 -17 -16 -16 -15 -15 -15 -15 -15 -15 -15 -15 -15 -15 -15 -15 -15 -15 -15 -15
Height
5836 5835 5834 5832 5834 5829 5827 5826 5822 5821 5819 5818 5815 5814 5813 5810 5810 5810 5807 5806 5805 5804 5805 5805 5805 5804 5805 5805 5806 5806 5806 5809 5810 5812 5815 5816 5818 5820 5822 5824 5825 5827 5829 5829 5830 5832 5832 5832 5834
5836 5835 5833 5832 5831 5828 5826 5824 5822 5819 5817 5815 5811 5809 5808 5807 5805 5804 5803 5802 5801 5800 5801 5801 5800 5800 5800 5801 5801 5802 5802 5804 5806 5808 5811 5814 5816 5817 5819 5821 5823 5825 5826 5827 5828 5829 5829 5830 5830
5836 5833 5832 5829 5827 5826 5824 5822 5819 5817 5814 5812 5809 5805 5802 5803 5800 5798 5798 5796 5796 5795 5795 5797 5796 5796 5795 5796 5798 5799 5799 5800 5801 5803 5806 5808 5812 5814 5815 5818 5819 5822 5824 5824 5825 5826 5827 5827 5828
5834 5833 5831 5828 5826 5824 5821 5818 5816 5813 5810 5806 5802 5799 5798 5796 5795 5792 5791 5790 5790 5790 5791 5792 5791 5791 5791 5790 5792 5793 5794 5796 5797 5799 5801 5804 5806 5809 5812 5814 5816 5818 5820 5822 5822 5823 5825 5826 5826
5833 5830 5828 5825 5823 5820 5817 5814 5810 5807 5803 5800 5795 5793 5791 5790 5787 5784 5782 5781 5780 5782 5784 5786 5787 5785 5786 5786 5786 5787 5789 5790 5792 5794 5796 5798 5802 5803 5806 5810 5812 5814 5815 5818 5819 5820 5822 5824 5824
5831 5828 5825 5823 5820 5817 5814 5811 5807 5803 5799 5794 5790 5784 5784 5778 5777 5775 5771 5769 5769 5771 5772 5774 5779 5780 5779 5782 5774 5779 5783 5786 5788 5791 5793 5795 5797 5799 5802 5804 5807 5810 5812 5814 5816 5818 5819 5820 5821
5829 5826 5824 5821 5818 5815 5812 5808 5805 5800 5795 5790 5782 5776 5773 5769 5764 5761 5759 5757 5757 5758 5762 5763 5766 5770 5772 5773 5772 5769 5773 5775 5779 5784 5788 5791 5793 5795 5798 5800 5803 5806 5808 5811 5813 5815 5816 5818 5818
5827 5825 5822 5819 5816 5813 5809 5805 5800 5796 5791 5782 5776 5770 5762 5756 5752 5748 5746 5744 5743 5746 5748 5752 5754 5758 5761 5762 5765 5767 5767 5769 5770 5775 5781 5787 5789 5792 5794 5797 5800 5802 5805 5807 5809 5811 5813 5815 5816
5825 5823 5820 5817 5813 5810 5806 5801 5797 5791 5784 5779 5771 5762 5754 5745 5740 5737 5736 5735 5734 5733 5736 5738 5742 5745 5749 5751 5754 5758 5759 5765 5766 5769 5774 5780 5784 5788 5791 5794 5797 5799 5802 5804 5806 5808 5809 5812 5812
5824 5821 5818 5814 5811 5807 5802 5797 5792 5786 5779 5770 5762 5754 5745 5737 5733 5729 5727 5726 5725 5724 5725 5726 5728 5731 5736 5741 5743 5750 5751 5758 5762 5765 5768 5772 5778 5783 5787 5789 5792 5797 5799 5796 5802 5801 5804 5807 5809
5822 5819 5815 5812 5808 5803 5797 5792 5786 5779 5770 5761 5750 5742 5735 5730 5725 5722 5719 5717 5715 5713 5713 5714 5716 5718 5722 5728 5733 5738 5745 5748 5755 5759 5762 5766 5771 5776 5781 5785 5788 5792 5794 5795 5797 5796 5801 5802 5805
5821 5817 5813 5809 5805 5799 5793 5788 5780 5772 5763 5752 5741 5733 5727 5722 5718 5714 5710 5706 5704 5702 5701 5700 5703 5705 5710 5715 5722 5727 5734 5741 5746 5753 5757 5761 5764 5769 5775 5779 5783 5787 5790 5792 5795 5797 5798 5798 5802
5818 5815 5811 5806 5801 5795 5789 5782 5775 5767 5757 5744 5732 5724 5719 5714 5710 5706 5702 5699 5695 5692 5688 5685 5689 5695 5698 5703 5709 5717 5724 5731 5736 5744 5749 5754 5758 5762 5768 5773 5777 5782 5785 5789 5791 5792 5795 5796 5799
5815 5813 5808 5802 5797 5791 5785 5778 5770 5761 5749 5736 5724 5717 5714 5708 5703 5697 5694 5690 5686 5681 5676 5671 5675 5682 5689 5694 5700 5708 5716 5723 5728 5733 5741 5744 5750 5756 5761 5766 5772 5777 5780 5784 5788 5789 5791 5791 5795
5812 5810 5804 5799 5794 5789 5782 5776 5767 5757 5744 5731 5720 5714 5709 5703 5696 5690 5687 5682 5677 5672 5667 5664 5667 5672 5680 5686 5690 5697 5706 5715 5721 5725 5731 5737 5742 5750 5756 5761 5766 5771 5774 5779 5783 5785 5787 5788 5789
5808 5807 5802 5797 5791 5785 5780 5771 5764 5754 5741 5727 5718 5713 5707 5700 5692 5685 5680 5674 5669 5664 5661 5660 5662 5666 5672 5678 5682 5688 5697 5706 5712 5720 5724 5731 5738 5743 5750 5756 5762 5766 5769 5774 5777 5780 5783 5784 5785
5805 5804 5799 5795 5789 5783 5777 5770 5762 5750 5739 5724 5718 5712 5705 5698 5689 5683 5677 5670 5664 5659 5657 5657 5659 5662 5667 5671 5675 5680 5687 5697 5703 5711 5718 5725 5732 5737 5744 5751 5757 5760 5763 5769 5773 5775 5778 5779 5781
5803 5801 5797 5793 5788 5781 5774 5767 5758 5749 5737 5723 5718 5711 5704 5697 5689 5681 5674 5667 5662 5657 5656 5656 5657 5660 5663 5666 5670 5675 5681 5690 5697 5704 5711 5719 5726 5730 5737 5746 5752 5756 5760 5765 5768 5770 5773 5775 5776
5801 5798 5795 5791 5786 5779 5773 5765 5757 5747 5736 5725 5717 5712 5705 5698 5690 5682 5674 5666 5661 5657 5655 5654 5655 5656 5658 5661 5665 5670 5675 5684 5692 5701 5706 5714 5720 5726 5732 5740 5746 5751 5756 5760 5763 5766 5769 5771 5773
5799 5796 5794 5790 5784 5779 5772 5765 5757 5747 5737 5726 5716 5712 5706 5699 5692 5683 5674 5665 5658 5654 5651 5650 5650 5650 5651 5654 5658 5664 5670 5679 5690 5694 5702 5708 5715 5720 5726 5734 5741 5747 5752 5754 5758 5762 5764 5766 5767
5795 5794 5791 5789 5783 5778 5771 5765 5757 5749 5739 5728 5718 5711 5705 5699 5692 5684 5675 5666 5658 5651 5649 5647 5646 5646 5648 5650 5653 5658 5665 5673 5681 5688 5696 5703 5709 5715 5721 5728 5736 5741 5747 5751 5753 5756 5758 5761 5762
5792 5791 5788 5786 5782 5777 5771 5765 5758 5749 5740 5730 5720 5710 5704 5697 5691 5684 5676 5668 5660 5652 5649 5647 5646 5645 5646 5647 5649 5652 5661 5668 5676 5682 5690 5697 5702 5709 5715 5723 5731 5737 5743 5747 5748 5750 5753 5755 5758
5789 5787 5786 5783 5780 5776 5771 5765 5758 5750 5740 5732 5722 5712 5704 5697 5690 5684 5677 5669 5662 5655 5651 5649 5648 5648 5644 5645 5647 5650 5657 5664 5671 5676 5685 5690 5697 5705 5711 5718 5726 5732 5735 5741 5743 5747 5749 5751 5753
5785 5784 5783 5781 5778 5775 5770 5765 5760 5751 5743 5735 5726 5715 5707 5700 5692 5685 5677 5670 5664 5659 5653 5651 5649 5646 5643 5643 5645 5650 5655 5661 5667 5672 5680 5686 5693 5701 5707 5715 5722 5727 5731 5736 5739 5742 5744 5747 5748
5783 5781 5779 5779 5777 5774 5769 5764 5759 5753 5745 5737 5729 5720 5711 5702 5694 5685 5678 5670 5665 5660 5656 5652 5650 5647 5643 5642 5645 5648 5653 5658 5663 5670 5675 5682 5689 5697 5704 5710 5716 5723 5727 5731 5736 5738 5740 5741 5743
5780 5779 5776 5775 5774 5772 5768 5763 5760 5753 5747 5740 5732 5724 5715 5706 5697 5688 5679 5671 5665 5661 5657 5653 5650 5649 5646 5646 5648 5650 5652 5657 5662 5667 5672 5679 5687 5694 5701 5707 5713 5718 5723 5726 5730 5733 5734 5736 5737
5776 5776 5774 5772 5771 5769 5767 5763 5760 5754 5748 5742 5735 5727 5719 5710 5701 5692 5683 5674 5667 5661 5659 5657 5652 5651 5650 5648 5648 5652 5656 5659 5662 5667 5672 5678 5683 5689 5696 5702 5708 5713 5717 5722 5725 5727 5729 5730 5731
5772 5772 5771 5768 5768 5766 5765 5761 5758 5754 5749 5743 5737 5731 5723 5715 5706 5697 5687 5678 5668 5661 5659 5661 5659 5656 5655 5654 5652 5656 5659 5661 5666 5670 5674 5678 5683 5687 5692 5698 5704 5709 5713 5717 5720 5722 5723 5724 5725
5768 5767 5767 5766 5765 5763 5762 5761 5758 5755 5750 5745 5739 5733 5726 5719 5711 5703 5692 5683 5672 5664 5662 5665 5665 5662 5662 5662 5661 5659 5661 5665 5668 5672 5675 5679 5683 5686 5690 5694 5699 5704 5708 5711 5714 5715 5717 5719 5720
5763 5763 5764 5762 5762 5761 5760 5760 5756 5754 5750 5746 5740 5735 5730 5723 5717 5709 5700 5690 5681 5673 5670 5671 5669 5668 5665 5665 5664 5666 5667 5669 5670 5673 5678 5680 5682 5686 5688 5692 5695 5698 5702 5705 5708 5710 5711 5711 5712
Wind_Speed
6 7 8 8 10 7 11 12 14 13 16 19 22 25 28 26 24 26 26 27 25 25 22 21 24 25 24 22 22 21 20 21 23 23 22 21 21 21 21 19 14 14 14 14 11 11 11 10 9
3 6 8 9 10 11 10 13 12 14 15 19 22 26 27 27 27 26 27 27 28 28 25 22 23 23 22 23 22 23 23 24 27 26 25 23 23 23 22 21 16 17 16 15 14 14 12 11 11
4 6 7 11 9 8 10 10 13 17 19 21 25 30 31 31 31 32 29 29 28 30 28 23 24 23 24 22 24 25 25 27 30 30 28 28 25 25 24 24 19 18 17 17 16 16 15 12 11
4 8 9 10 10 8 12 14 16 19 21 26 31 33 35 36 36 38 37 35 33 31 29 29 26 26 26 26 26 29 29 29 30 32 31 31 30 28 26 24 22 21 20 19 17 15 15 13 12
3 9 12 14 11 11 13 16 19 22 25 28 33 34 35 36 38 41 44 43 40 38 33 33 31 30 30 30 31 32 33 32 32 34 33 33 32 29 28 25 23 23 21 20 18 17 16 14 13
4 7 11 11 10 11 14 19 24 27 30 31 33 39 36 38 39 42 45 48 47 45 40 37 36 37 33 29 27 28 33 33 32 33 35 34 32 31 29 27 25 22 23 22 20 20 18 17 15
4 6 7 8 11 10 17 21 25 28 31 34 38 41 40 39 43 45 47 46 48 48 45 42 42 41 41 39 39 34 33 38 36 34 35 36 34 33 31 28 26 24 24 22 22 22 20 19 16
1 7 7 9 12 13 18 20 24 27 31 35 39 41 44 45 44 45 43 44 44 46 47 45 45 44 46 45 35 41 26 41 40 38 35 37 36 34 33 30 28 28 26 25 25 24 22 20 18
3 4 5 9 13 15 19 22 22 28 33 36 39 42 45 45 39 37 34 31 31 36 45 49 51 46 48 50 51 47 31 33 38 39 36 36 37 35 33 32 30 28 26 26 27 26 25 18 23
4 3 6 9 14 17 20 22 26 31 35 37 40 42 43 39 35 36 35 36 37 37 37 45 55 58 54 56 54 48 40 34 33 32 39 38 38 37 35 33 32 30 27 26 26 31 30 27 29
6 3 7 9 14 17 20 24 29 34 39 41 43 43 37 32 36 35 34 36 38 41 44 42 45 57 61 59 58 55 52 37 35 38 40 41 38 39 38 35 33 33 33 29 36 22 28 34 30
10 4 7 10 14 18 21 26 31 37 42 45 46 40 32 32 32 34 36 37 36 38 42 49 46 46 55 60 58 60 53 43 45 46 40 36 41 40 37 37 35 34 35 33 33 32 35 31 31
12 6 7 11 15 19 23 28 34 40 45 49 46 35 29 33 31 32 33 30 33 37 41 44 48 44 44 51 57 58 59 46 45 41 44 39 39 43 40 39 39 37 37 36 35 34 33 36 36
12 8 8 12 16 20 25 31 36 42 49 54 45 27 27 29 30 31 28 31 34 34 37 34 42 46 41 44 43 53 58 56 48 43 43 42 40 40 42 39 35 38 38 36 34 34 30 38 39
14 9 9 12 17 20 24 30 36 45 50 53 33 23 27 29 32 26 24 30 30 31 27 24 28 38 38 38 43 43 55 57 58 46 53 51 40 42 41 43 39 36 37 37 33 37 31 30 24
13 10 10 12 16 20 24 31 37 45 50 46 24 25 27 30 27 25 26 29 28 27 21 24 22 27 30 34 36 39 44 55 56 52 44 50 45 44 39 40 38 35 33 32 33 32 30 35 38
12 8 11 15 16 21 24 30 36 44 50 36 25 26 28 30 27 24 25 25 24 19 15 18 19 21 23 26 28 33 40 48 49 54 50 43 36 41 41 40 36 37 35 30 29 28 30 30 30
9 12 15 16 17 20 25 29 37 42 47 34 24 27 27 30 30 26 25 24 19 13 8 10 13 18 22 24 25 28 36 43 43 48 55 51 40 38 45 39 39 33 31 26 28 28 30 27 25
11 14 17 17 17 20 25 29 35 41 46 38 22 24 26 27 31 32 29 24 16 10 10 12 16 20 24 24 24 23 31 34 34 41 44 41 46 46 45 43 41 38 32 32 27 30 28 30 26
15 15 16 17 17 17 23 27 33 39 43 42 26 23 24 26 31 35 37 28 21 16 16 17 18 20 24 23 27 27 27 27 36 43 39 48 49 44 44 43 39 35 31 27 28 21 21 24 29
14 16 16 15 17 18 19 23 31 35 40 40 32 21 24 28 31 37 39 39 27 18 12 9 13 19 25 22 26 28 24 24 31 39 43 36 51 47 46 40 33 32 32 31 27 24 26 27 32
12 16 17 16 17 18 18 24 28 33 38 39 38 27 22 26 30 35 38 38 37 22 11 7 10 20 15 16 28 31 29 27 38 39 43 39 40 47 45 40 37 33 32 30 30 32 31 28 25
11 15 16 18 17 18 17 20 27 30 35 39 39 38 29 26 29 32 35 34 34 27 13 8 13 15 13 19 37 38 30 25 25 30 38 38 43 40 42 39 36 32 31 29 31 30 32 31 28
12 13 15 17 18 17 16 19 23 30 31 35 38 39 38 31 29 30 30 30 29 29 18 13 16 20 13 19 32 32 27 25 21 27 36 39 42 42 37 36 34 32 30 31 25 29 29 28 27
13 12 12 16 16 17 17 17 22 28 29 31 35 38 40 40 35 32 30 27 24 23 24 13 11 12 16 15 25 28 27 23 26 29 33 37 38 42 39 36 35 32 30 29 28 28 27 24 24
15 12 11 15 17 18 19 17 20 25 27 31 32 35 37 41 41 38 33 28 23 17 20 22 14 9 20 2 30 22 27 27 24 23 25 33 36 40 39 36 34 34 31 29 33 28 28 27 27
17 17 11 12 16 17 18 19 17 20 25 28 32 34 36 38 41 42 38 32 29 17 12 19 18 12 14 18 1 21 28 24 22 19 20 25 33 38 37 35 32 32 31 30 31 30 29 26 33
19 17 13 12 15 16 17 20 16 18 21 26 29 32 35 37 40 45 47 41 37 26 6 13 21 15 9 17 8 10 14 22 19 18 16 17 22 29 37 38 37 34 34 31 32 32 33 35 29
19 17 14 13 15 17 18 18 18 16 16 22 26 30 34 37 38 42 48 46 43 33 13 13 20 20 14 8 14 12 8 10 14 13 15 15 17 17 21 28 32 35 34 34 37 33 32 30 33
19 17 16 12 12 16 17 17 19 17 15 18 21 25 30 34 37 39 43 47 43 33 21 17 20 23 20 14 9 12 16 9 3 10 13 13 15 16 14 18 23 26 25 26 28 31 29 28 29
Wind_Direction
77 47 30 19 15 6 1 355 346 318 310 299 292 290 286 284 282 280 270 269 266 265 264 262 261 257 248 245 244 235 226 216 215 214 215 209 212 215 218 229 221 221 225 211 221 229 234 250 248
29 10 356 8 2 1 348 345 326 321 306 299 292 282 282 283 282 279 271 268 263 260 259 256 260 255 251 242 240 240 230 218 212 215 214 213 213 217 219 227 223 220 224 227 235 234 231 236 233
344 354 0 9 7 336 336 320 315 306 305 296 281 275 280 287 284 283 278 272 264 261 256 248 253 258 256 240 239 237 235 225 214 214 214 210 213 218 218 226 228 220 226 229 233 234 234 222 224
336 9 17 8 4 329 327 326 323 314 301 293 286 288 288 286 286 285 282 276 272 260 253 243 243 251 257 255 241 238 234 233 222 215 214 215 210 214 221 225 228 218 222 229 230 235 221 221 231
5 29 37 27 13 346 323 313 301 303 302 295 292 291 290 286 279 278 278 275 270 267 259 249 235 240 247 255 259 238 235 231 226 219 216 213 214 213 216 219 222 220 217 221 224 214 211 232 233
50 11 33 24 5 329 311 302 300 300 301 301 298 293 292 285 279 271 268 266 265 260 253 248 241 236 239 248 248 252 239 230 231 227 221 219 215 214 215 216 219 223 218 216 217 213 220 230 234
38 29 26 9 348 311 303 302 303 303 303 304 301 302 300 291 280 272 266 263 260 257 253 248 242 234 235 233 243 251 254 231 224 225 226 222 217 216 217 215 216 214 215 216 217 218 223 233 237
13 20 22 357 337 326 317 314 315 313 307 304 309 308 302 293 284 278 274 266 257 252 250 246 242 240 234 234 233 241 252 233 214 221 223 225 222 218 218 216 215 219 217 218 217 222 229 239 240
272 349 12 348 327 333 323 319 320 321 319 316 310 310 306 295 288 286 281 269 267 264 248 240 238 240 234 236 238 236 256 241 227 221 219 227 225 223 220 219 218 221 221 222 223 226 232 230 249
267 309 359 337 320 321 322 322 322 320 322 320 316 311 304 290 286 285 281 276 269 263 261 249 239 238 237 236 237 235 245 233 231 243 235 219 228 226 226 221 220 223 217 220 223 224 232 236 245
272 317 360 328 319 323 325 327 326 322 323 324 319 309 298 283 282 282 277 275 272 268 264 255 251 239 237 235 235 232 229 235 240 239 232 226 220 227 225 226 224 222 222 222 239 241 237 242 246
274 332 312 320 315 321 324 325 325 324 328 327 321 308 295 293 290 283 283 283 280 279 270 257 250 245 238 235 233 235 227 229 217 233 237 232 225 224 226 227 226 226 224 225 227 236 238 245 247
280 296 331 311 314 328 329 323 325 327 331 329 323 313 301 305 301 295 287 279 285 288 288 264 247 245 240 237 233 229 226 222 222 208 215 230 233 224 220 228 227 227 230 231 232 240 241 251 253
286 296 338 313 315 331 331 329 330 332 337 333 327 318 312 315 314 302 287 283 287 290 289 265 241 240 241 235 234 229 229 225 227 207 218 228 226 233 218 226 227 231 231 233 237 240 241 252 248
294 307 304 322 321 329 330 335 334 339 341 336 334 329 324 322 319 309 297 297 293 290 283 256 240 236 239 237 235 229 227 227 229 232 219 225 228 235 222 225 226 235 234 232 232 238 243 252 251
302 285 301 312 327 332 336 337 340 344 344 342 353 343 337 333 323 315 302 302 302 294 274 251 229 228 230 235 234 231 220 226 228 234 220 224 231 231 221 227 230 232 237 238 234 235 245 249 255
298 280 312 316 324 335 340 343 346 348 347 351 358 352 352 349 339 327 318 309 310 300 273 255 221 219 225 228 231 227 222 223 231 231 225 218 224 229 232 224 227 231 235 239 241 250 239 253 257
288 297 313 318 335 340 343 344 350 351 351 356 358 354 360 3 1 351 334 322 314 303 262 242 226 215 219 228 233 231 221 222 230 232 233 233 229 223 224 217 224 226 230 233 242 242 254 258 257
289 303 313 319 334 344 342 349 351 354 354 358 355 351 1 9 9 4 350 335 309 300 247 253 263 259 235 229 228 224 221 222 229 229 236 234 216 223 221 218 223 227 235 237 245 240 246 251 255
301 299 310 324 334 346 345 350 353 357 357 357 351 345 353 358 1 4 1 347 323 290 263 256 261 249 235 228 218 214 205 209 205 202 223 220 216 217 216 218 222 223 227 231 240 233 243 248 247
303 305 306 320 330 339 347 356 353 360 2 3 353 343 348 352 356 359 0 0 348 317 284 263 259 252 220 238 214 192 184 196 204 220 225 222 214 219 217 214 217 218 225 233 238 239 244 248 251
296 307 309 319 325 332 343 349 352 1 4 7 2 350 342 345 350 354 357 359 2 349 327 321 304 259 249 247 200 183 179 186 197 207 218 219 213 218 213 212 218 223 230 236 238 242 247 251 256
287 305 305 315 319 321 330 351 351 359 5 5 10 7 348 339 340 346 350 356 2 3 14 340 315 311 341 204 188 182 181 176 190 209 228 215 210 216 215 211 213 220 229 242 244 240 246 250 253
270 287 296 306 308 314 330 342 351 359 3 5 9 14 14 4 347 348 350 352 357 8 358 352 342 341 349 223 199 182 178 184 193 214 238 208 207 208 217 213 218 220 220 230 245 247 247 253 257
270 271 291 298 296 307 325 337 345 353 1 4 7 10 13 15 10 0 357 355 353 358 9 346 346 344 356 218 208 189 182 182 188 197 202 206 209 213 214 214 220 224 221 231 235 245 248 251 261
273 275 282 289 298 306 317 323 340 348 359 2 7 10 10 13 11 9 1 360 358 352 356 5 355 18 350 130 210 200 173 175 173 186 189 201 211 213 218 223 224 228 228 235 237 248 242 248 260
273 273 277 293 294 301 309 317 325 340 354 1 4 8 11 9 10 10 11 6 3 357 356 12 5 359 356 350 29 181 179 164 157 169 181 196 204 208 214 219 222 225 233 235 237 245 250 257 258
273 270 267 282 295 297 307 308 319 334 347 356 1 6 10 12 10 11 12 11 10 11 23 27 20 15 21 358 323 199 205 168 177 182 194 205 208 215 220 225 229 229 230 236 242 250 254 261 265
274 269 261 263 287 296 300 309 319 321 339 350 357 3 9 13 15 12 12 13 15 24 69 49 40 31 34 42 20 335 313 226 195 195 199 201 210 215 219 223 228 233 237 239 244 248 254 260 266
270 266 257 261 279 292 305 311 314 320 329 341 352 358 4 12 17 16 14 15 19 34 69 59 42 41 37 50 57 39 6 301 332 221 212 206 204 213 217 220 223 226 231 235 234 255 253 242 245